Weather in Noskovo

Russia / Kostroma Oblast     59°04′16″N   45°36′13″E
temp.,
°C
wind,
m/s
gust,
m/s
humid.,
%
clouds,
%
prec.,
mm/h
press.,
hPa
HPBL,
m
9 may, sun
sun900:00+8se41381100 0.0 1010384
03:00+9se51585100 0.1 1008777
06:00+10se51487100 0.1 1007767
09:00+11sse51389100 0.8 1007934
12:00+11sse51294100 1.9 1008759
15:00+11ssw3996100 4.1 1010473
18:00+10nw3696100 4.6 1010336
21:00+9wnw2699100 9.6 1012305
10 may, mon
mon1000:00+6nw4997100 2.4 1014465
03:00+5nw4995100 3.2 1018564
06:00+4nnw41097100 0.1 1021701
09:00+6nnw4783100 0.2 1024874
12:00+11n46525 0.0 10251508
15:00+13n34435 0.0 10261790
18:00+12n24545 0.0 1028292
21:00+6nnw11705 0.0 103010
11 may, tue
tue1100:00+4se117667 0.0 103110
03:00+4s118175 0.0 103210
06:00+7s126991 0.0 1033105
09:00+13ssw225098 0.0 1033675
12:00+16sw23426 0.0 10321109
15:00+18wsw22436 0.0 10311113
18:00+17sw115922 0.0 103132
21:00+11s117334 0.0 103210
12 may, wed
wed1200:00+9ssw228179 0.0 103312
03:00+9sw117791 0.0 103210
06:00+12ese11683 0.0 103382
09:00+17sse23525 0.0 1033614
12:00+20sse23445 0.0 10321118
15:00+21sse23425 0.0 10311322
18:00+19sse23570 0.0 1030106
21:00+13sse11725 0.0 103010
13 may, thu
thu1300:00+11se11760 0.0 103010
03:00+9se11790 0.0 103010
06:00+13se12705 0.0 1030104
09:00+18se245133 0.0 1029637
12:00+22sse343986 0.0 10281356
15:00+23sse343859 0.0 10261682
18:00+20sse2655100 0.0 1025210
21:00+14sse2270100 0.0 102520